Flag for Switzerland Weather past 2 weeks in Altdorf, Uri, Switzerland

Now
45 °F

Cool.


Feels Like: 38 °F
Forecast: 19 / 43 °F
Wind: 17 mph from North

Location: Altdorf

Current Time: Oct 23, 2014 at 4:33:30 AM

Latest Report: Oct 23, 2014 at 3:00 AM


Visibility: N/A

Pressure: 30.27 "Hg

Humidity: 71%

Dew point: 36 °F

Location of AltdorfLocation

Historic Weather in Altdorf — Graph

°F

Altdorf temperature yesterday

Maximum temperature yesterday: 49 °F (at 1:00 AM)
Minimum temperature yesterday: 42 °F (at 6:00 AM)
Average temperature yesterday: 45 °F

Past Weeks' High & Low Weather Summary

 TemperatureHumidityPressure
High77 °F (Oct 9, 2:00 PM)99% (Oct 16, 2:00 AM)30.29 "Hg (Oct 16, 2:00 AM)
Low42 °F (Oct 22, 6:00 AM)29% (Oct 9, 1:00 PM)29.71 "Hg (Oct 12, 10:00 PM)
Average59 °F77%29.97 "Hg
* Reported Oct 8 3:00 AM — Oct 23 3:00 AM, Altdorf, Weather by CustomWeather, © 2014

Note: Actual official high and low records may vary slightly from our data, if they occured in-between our weather recording intervals... More about our weather records

Advertising

Altdorf weather history for previous 24 hours

 ConditionsComfort  
Time TempWeatherWind HumidityBarometerVisibility
3:00 AM
Oct 23
45 °FCool.17 mph71%30.27 "HgN/A
2:00 AM45 °FRain. Overcast.21 mph70%30.25 "Hg6 mi
1:00 AM45 °FQuite cool.18 mph72%30.23 "HgN/A
12:00 AM45 °FCool.22 mph68%30.23 "HgN/A
11:00 PM
Oct 22
44 °FRain. Overcast.22 mph72%30.24 "Hg4 mi
10:00 PM46 °FCool.20 mph63%30.22 "HgN/A
9:00 PM44 °FQuite cool.21 mph72%30.22 "HgN/A
8:00 PM45 °FRain. Overcast.18 mph63%30.21 "Hg4 mi
7:00 PM45 °FQuite cool.20 mph63%30.21 "HgN/A
6:00 PM44 °FQuite cool.21 mph64%30.20 "HgN/A
5:00 PM45 °FDrizzle. Overcast.16 mph53%30.20 "Hg12 mi
4:00 PM43 °FQuite cool.18 mph68%30.23 "HgN/A
3:00 PM44 °FQuite cool.17 mph61%30.21 "HgN/A
2:00 PM43 °FLight rain. Overcast.18 mph69%30.24 "Hg12 mi
1:00 PM43 °FQuite cool.22 mph68%30.23 "HgN/A
12:00 PM44 °FQuite cool.17 mph59%30.21 "HgN/A
11:00 AM44 °FOvercast.21 mph66%30.20 "Hg11 mi
10:00 AM44 °FQuite cool.22 mph61%30.20 "HgN/A
9:00 AM43 °FQuite cool.24 mph69%30.17 "HgN/A
8:00 AM43 °FRain. Overcast.23 mph71%30.12 "Hg4 mi
7:00 AM42 °FQuite cool.30 mph78%30.11 "HgN/A
6:00 AM42 °FQuite cool.24 mph83%30.08 "HgN/A
5:00 AM48 °FRain. Overcast.20 mph53%30.02 "Hg3 mi
4:00 AM49 °FCool.23 mph53%30.03 "HgN/A
Weather by CustomWeather, © 2014

See weather overviewHow to use our weather pages